CCA8585 ZSPD-ZYCC

Flight info

Callsign CCA8585
Flight time 2h 15m
Altitude 31100
Route IBEGI B221 XDX DCT URBAD W172 IGDEG W173 NIXEP W8 DOBGA W202 UDETI A588 LEMOT LEMOT7A
Aircraft A320/M-SDE3FGHIRWY/LB1

Departure

Time 2026-05-05 13:10
Airport Shanghai Pudong International Airport (ZSPD)

Arrival

Time 2026-05-05 15:26
Airport Changchun Longjia International Airport (ZYCC)
Time Latitude Longitude Altitude Speed Heading
2026-05-05 12:25 31.14781 121.80946 23 ft 0 kts 267°
2026-05-05 12:57 31.14782 121.80955 23 ft 3 kts 267°
2026-05-05 12:57 31.14783 121.80978 23 ft 3 kts 267°
2026-05-05 12:57 31.14784 121.80999 23 ft 3 kts 266°
2026-05-05 12:57 31.14787 121.81021 25 ft 3 kts 242°
2026-05-05 12:58 31.14798 121.81037 27 ft 3 kts 200°
2026-05-05 12:58 31.14816 121.81040 23 ft 3 kts 166°
2026-05-05 12:58 31.14829 121.81035 23 ft 1 kts 162°
2026-05-05 13:02 31.14823 121.81038 23 ft 3 kts 162°
2026-05-05 13:02 31.14799 121.81066 25 ft 7 kts 110°
2026-05-05 13:02 31.14810 121.81127 23 ft 9 kts 72°
2026-05-05 13:02 31.14830 121.81201 23 ft 10 kts 72°
2026-05-05 13:03 31.14854 121.81288 23 ft 12 kts 72°
2026-05-05 13:03 31.14905 121.81328 23 ft 10 kts 351°
2026-05-05 13:03 31.14978 121.81301 23 ft 12 kts 342°
2026-05-05 13:03 31.15061 121.81270 23 ft 13 kts 342°
2026-05-05 13:04 31.15155 121.81234 23 ft 15 kts 341°
2026-05-05 13:04 31.15260 121.81194 24 ft 17 kts 342°
2026-05-05 13:04 31.15375 121.81151 22 ft 18 kts 342°
2026-05-05 13:04 31.15503 121.81103 23 ft 20 kts 342°
2026-05-05 13:05 31.15621 121.81058 22 ft 11 kts 342°
2026-05-05 13:05 31.15670 121.81039 22 ft 0 kts 342°
2026-05-05 13:06 31.15672 121.81039 24 ft 1 kts 342°
2026-05-05 13:06 31.15687 121.81033 22 ft 3 kts 342°
2026-05-05 13:06 31.15713 121.81024 22 ft 5 kts 346°
2026-05-05 13:07 31.15748 121.81035 22 ft 6 kts 39°
2026-05-05 13:07 31.15761 121.81075 22 ft 3 kts 74°
2026-05-05 13:07 31.15768 121.81105 22 ft 5 kts 74°
2026-05-05 13:07 31.15780 121.81151 22 ft 7 kts 71°
2026-05-05 13:08 31.15786 121.81214 22 ft 9 kts 112°
2026-05-05 13:08 31.15758 121.81233 21 ft 0 kts 162°
2026-05-05 13:09 31.15716 121.81249 23 ft 29 kts 162°
2026-05-05 13:09 31.15307 121.81404 23 ft 92 kts 162°
2026-05-05 13:10 31.14541 121.81694 22 ft 138 kts 162°
2026-05-05 13:10 31.13521 121.82076 105 ft 166 kts 162°
2026-05-05 13:10 31.12452 121.82478 766 ft 158 kts 162°
2026-05-05 13:10 31.11426 121.82879 1419 ft 155 kts 165°
2026-05-05 13:11 31.10414 121.83282 2023 ft 153 kts 165°
2026-05-05 13:11 31.09428 121.83752 2539 ft 155 kts 151°
2026-05-05 13:11 31.08541 121.84489 3048 ft 157 kts 146°
2026-05-05 13:11 31.07625 121.85264 3391 ft 172 kts 146°
2026-05-05 13:12 31.06590 121.86133 3595 ft 194 kts 146°
2026-05-05 13:12 31.05432 121.87109 3794 ft 218 kts 145°
2026-05-05 13:12 31.04138 121.88202 4126 ft 242 kts 145°
2026-05-05 13:12 31.02718 121.89401 4637 ft 259 kts 145°
2026-05-05 13:13 31.01239 121.90672 4915 ft 266 kts 142°
2026-05-05 13:13 30.99825 121.92060 4964 ft 266 kts 139°
2026-05-05 13:13 30.98452 121.93509 4968 ft 266 kts 138°
2026-05-05 13:13 30.97093 121.94982 4969 ft 267 kts 138°
2026-05-05 13:14 30.95735 121.96454 4994 ft 266 kts 138°
2026-05-05 13:14 30.94396 121.97941 4992 ft 266 kts 132°
2026-05-05 13:14 30.93549 121.99843 4995 ft 269 kts 103°
2026-05-05 13:14 30.93644 122.02032 5372 ft 278 kts 73°
2026-05-05 13:15 30.94251 122.04164 6310 ft 278 kts 72°
2026-05-05 13:15 30.94853 122.06318 7127 ft 281 kts 72°
2026-05-05 13:15 30.95479 122.08486 7916 ft 284 kts 66°
2026-05-05 13:15 30.96637 122.10347 8648 ft 289 kts 39°
2026-05-05 13:16 30.98416 122.11412 9384 ft 292 kts 12°
2026-05-05 13:16 31.00434 122.11437 10107 ft 294 kts 346°
2026-05-05 13:16 31.02435 122.10745 10482 ft 310 kts 341°
2026-05-05 13:16 31.04535 122.09949 10635 ft 333 kts 340°
2026-05-05 13:17 31.06787 122.09081 10985 ft 346 kts 340°
2026-05-05 13:17 31.09122 122.08188 11593 ft 351 kts 340°
2026-05-05 13:17 31.11423 122.07320 12252 ft 353 kts 340°
2026-05-05 13:17 31.13769 122.06443 12934 ft 355 kts 340°
2026-05-05 13:18 31.16165 122.05554 13590 ft 358 kts 341°
2026-05-05 13:18 31.18553 122.04668 14151 ft 362 kts 341°
2026-05-05 13:18 31.20929 122.03785 14714 ft 364 kts 340°
2026-05-05 13:18 31.23375 122.02872 15310 ft 366 kts 340°
2026-05-05 13:19 31.25814 122.01958 15856 ft 368 kts 340°
2026-05-05 13:19 31.28226 122.01053 16429 ft 370 kts 340°
2026-05-05 13:19 31.30677 122.00137 17003 ft 371 kts 340°
2026-05-05 13:19 31.33151 121.99213 17541 ft 374 kts 340°
2026-05-05 13:20 31.35639 121.98282 18103 ft 377 kts 340°
2026-05-05 13:20 31.38146 121.97344 18606 ft 380 kts 340°
2026-05-05 13:20 31.40671 121.96396 19062 ft 383 kts 340°
2026-05-05 13:20 31.43217 121.95432 19550 ft 385 kts 340°
2026-05-05 13:21 31.45778 121.94459 20023 ft 388 kts 340°
2026-05-05 13:21 31.48355 121.93478 20507 ft 391 kts 340°
2026-05-05 13:21 31.50952 121.92490 20981 ft 393 kts 340°
2026-05-05 13:21 31.53597 121.91487 21441 ft 396 kts 340°
2026-05-05 13:22 31.55339 121.90828 21729 ft 398 kts 340°
2026-05-05 13:22 31.58878 121.89485 22305 ft 401 kts 340°
2026-05-05 13:22 31.60638 121.88817 22588 ft 403 kts 340°
2026-05-05 13:22 31.64223 121.87452 23163 ft 406 kts 340°
2026-05-05 13:23 31.66916 121.86424 23583 ft 409 kts 340°
2026-05-05 13:23 31.68710 121.85739 23830 ft 410 kts 339°
2026-05-05 13:23 31.71432 121.84702 24174 ft 412 kts 339°
2026-05-05 13:23 31.74167 121.83661 24527 ft 415 kts 339°
2026-05-05 13:24 31.76919 121.82615 24870 ft 417 kts 339°
2026-05-05 13:24 31.79686 121.81560 25214 ft 419 kts 339°
2026-05-05 13:24 31.82463 121.80502 25557 ft 421 kts 339°
2026-05-05 13:24 31.85260 121.79435 25881 ft 423 kts 340°
2026-05-05 13:25 31.88103 121.78523 26241 ft 426 kts 347°
2026-05-05 13:25 31.91057 121.78094 26586 ft 429 kts 352°
2026-05-05 13:25 31.94037 121.77749 26930 ft 431 kts 352°
2026-05-05 13:25 31.97027 121.77399 27313 ft 432 kts 352°
2026-05-05 13:26 32.00023 121.77045 27699 ft 433 kts 352°
2026-05-05 13:26 32.03028 121.76687 28046 ft 435 kts 352°
2026-05-05 13:26 32.06044 121.76331 28392 ft 436 kts 352°
2026-05-05 13:26 32.09064 121.75977 28860 ft 435 kts 352°
2026-05-05 13:27 32.12073 121.75625 29349 ft 434 kts 352°
2026-05-05 13:27 32.15070 121.75274 29830 ft 433 kts 352°
2026-05-05 13:27 32.18063 121.74920 30282 ft 431 kts 352°
2026-05-05 13:27 32.21044 121.74563 30657 ft 431 kts 352°
2026-05-05 13:28 32.24031 121.74204 30996 ft 432 kts 352°
2026-05-05 13:28 32.27024 121.73846 31124 ft 434 kts 352°
2026-05-05 13:28 32.33061 121.73131 31148 ft 437 kts 352°
2026-05-05 13:29 32.39120 121.72413 31149 ft 437 kts 352°
2026-05-05 13:29 32.45173 121.71691 31150 ft 436 kts 352°
2026-05-05 13:30 32.51200 121.70973 31148 ft 435 kts 352°
2026-05-05 13:30 32.57212 121.70254 31146 ft 434 kts 352°
2026-05-05 13:31 32.63226 121.69532 31144 ft 434 kts 352°
2026-05-05 13:31 32.69236 121.68813 31161 ft 434 kts 353°
2026-05-05 13:32 32.75226 121.68094 31163 ft 432 kts 353°
2026-05-05 13:32 32.81197 121.67380 31161 ft 431 kts 353°
2026-05-05 13:33 32.87158 121.66661 31157 ft 430 kts 353°
2026-05-05 13:33 32.93106 121.65946 31159 ft 429 kts 353°
2026-05-05 13:34 32.99039 121.65231 31163 ft 428 kts 353°
2026-05-05 13:34 33.04962 121.64508 31159 ft 427 kts 353°
2026-05-05 13:35 33.10873 121.63793 31156 ft 427 kts 353°
2026-05-05 13:35 33.16782 121.63087 31154 ft 426 kts 354°
2026-05-05 13:36 33.22641 121.62378 31154 ft 425 kts 353°
2026-05-05 13:36 33.28309 121.60503 31150 ft 424 kts 337°
2026-05-05 13:37 33.33725 121.57707 31146 ft 424 kts 337°
2026-05-05 13:37 33.39140 121.54919 31152 ft 423 kts 337°
2026-05-05 13:38 33.44547 121.52139 31136 ft 423 kts 338°
2026-05-05 13:38 33.49941 121.49360 31137 ft 421 kts 338°
2026-05-05 13:39 33.55321 121.46582 31135 ft 420 kts 338°
2026-05-05 13:39 33.60689 121.43812 31134 ft 420 kts 338°
2026-05-05 13:40 33.66046 121.41036 31136 ft 419 kts 338°
2026-05-05 13:40 33.71432 121.38356 31129 ft 418 kts 340°
2026-05-05 13:41 33.76862 121.35843 31132 ft 418 kts 340°
2026-05-05 13:41 33.82293 121.33334 31126 ft 418 kts 340°
2026-05-05 13:42 33.87703 121.30777 31124 ft 418 kts 339°
2026-05-05 13:42 33.93110 121.28200 31121 ft 418 kts 339°
2026-05-05 13:43 33.98514 121.25630 31118 ft 417 kts 339°
2026-05-05 13:43 34.03878 121.23076 31111 ft 417 kts 339°
2026-05-05 13:44 34.09269 121.20502 31113 ft 416 kts 339°
2026-05-05 13:44 34.14655 121.17935 31104 ft 416 kts 339°
2026-05-05 13:45 34.20038 121.15364 31108 ft 415 kts 339°
2026-05-05 13:45 34.25408 121.12801 31108 ft 415 kts 339°
2026-05-05 13:46 34.30773 121.10234 31107 ft 415 kts 339°
2026-05-05 13:46 34.36138 121.07662 31106 ft 414 kts 339°
2026-05-05 13:47 34.41494 121.05082 31096 ft 414 kts 339°
2026-05-05 13:47 34.46852 121.02504 31102 ft 414 kts 339°
2026-05-05 13:48 34.52202 120.99930 31103 ft 414 kts 339°
2026-05-05 13:48 34.57550 120.97354 31104 ft 413 kts 339°
2026-05-05 13:49 34.62892 120.94770 31094 ft 413 kts 339°
2026-05-05 13:49 34.68225 120.92199 31100 ft 412 kts 339°
2026-05-05 13:50 34.73542 120.89627 31103 ft 411 kts 339°
2026-05-05 13:50 34.78849 120.87051 31102 ft 411 kts 339°
2026-05-05 13:51 34.84153 120.84467 31095 ft 410 kts 339°
2026-05-05 13:51 34.89457 120.81887 31096 ft 410 kts 339°
2026-05-05 13:52 34.94758 120.79306 31098 ft 410 kts 339°
2026-05-05 13:52 35.00052 120.76723 31100 ft 410 kts 339°
2026-05-05 13:53 35.05342 120.74141 31094 ft 409 kts 339°
2026-05-05 13:53 35.10626 120.71564 31087 ft 409 kts 339°
2026-05-05 13:54 35.15869 120.69000 31080 ft 408 kts 339°
2026-05-05 13:54 35.21150 120.66428 31087 ft 408 kts 339°
2026-05-05 13:55 35.26429 120.63869 31086 ft 408 kts 339°
2026-05-05 13:55 35.31708 120.61306 31082 ft 408 kts 339°
2026-05-05 13:56 35.36974 120.58741 31071 ft 407 kts 339°
2026-05-05 13:56 35.42245 120.56179 31069 ft 407 kts 339°
2026-05-05 13:57 35.47515 120.53638 31067 ft 407 kts 339°
2026-05-05 13:57 35.52785 120.51091 31064 ft 407 kts 339°
2026-05-05 13:58 35.58040 120.48521 31064 ft 407 kts 339°
2026-05-05 13:58 35.63293 120.45948 31062 ft 406 kts 339°
2026-05-05 13:59 35.71178 120.42092 31075 ft 406 kts 339°
2026-05-05 14:00 35.78169 120.38669 31063 ft 406 kts 339°
2026-05-05 14:00 35.84297 120.35661 31072 ft 405 kts 339°
2026-05-05 14:01 35.89537 120.33092 31075 ft 405 kts 339°
2026-05-05 14:01 35.94991 120.31642 31079 ft 405 kts
2026-05-05 14:02 35.97776 120.32170 31077 ft 407 kts 14°
2026-05-05 14:02 36.00398 120.33527 31073 ft 413 kts 27°
2026-05-05 14:02 36.02696 120.35689 31060 ft 420 kts 41°
2026-05-05 14:02 36.04672 120.38360 31056 ft 422 kts 43°
2026-05-05 14:03 36.08661 120.43683 31060 ft 419 kts 37°
2026-05-05 14:03 36.10994 120.45792 31056 ft 414 kts 26°
2026-05-05 14:03 36.13579 120.47299 31058 ft 409 kts 16°
2026-05-05 14:04 36.19119 120.48479 31039 ft 404 kts
2026-05-05 14:04 36.24743 120.48792 31036 ft 405 kts
2026-05-05 14:05 36.30375 120.49118 31035 ft 405 kts
2026-05-05 14:05 36.36011 120.49462 31043 ft 406 kts
2026-05-05 14:06 36.41496 120.51176 31036 ft 411 kts 18°
2026-05-05 14:06 36.46848 120.53674 31037 ft 411 kts 17°
2026-05-05 14:07 36.52199 120.55994 31031 ft 408 kts 10°
2026-05-05 14:07 36.57799 120.57048 31026 ft 407 kts
2026-05-05 14:08 36.63413 120.58020 31028 ft 408 kts
2026-05-05 14:08 36.69031 120.58996 31029 ft 408 kts
2026-05-05 14:09 36.73746 120.59812 31034 ft 408 kts
2026-05-05 14:09 36.79374 120.60794 31030 ft 409 kts
2026-05-05 14:10 36.85007 120.61771 31030 ft 409 kts
2026-05-05 14:10 36.90646 120.62746 31037 ft 409 kts
2026-05-05 14:11 36.96275 120.63743 31035 ft 409 kts
2026-05-05 14:11 37.01902 120.64796 31034 ft 409 kts
2026-05-05 14:12 37.07532 120.65876 31036 ft 409 kts
2026-05-05 14:12 37.13160 120.66930 31034 ft 409 kts
2026-05-05 14:13 37.18757 120.67970 31031 ft 409 kts
2026-05-05 14:13 37.24432 120.69034 31023 ft 410 kts
2026-05-05 14:14 37.30072 120.70096 31024 ft 410 kts
2026-05-05 14:14 37.35720 120.71159 31027 ft 410 kts
2026-05-05 14:15 37.41372 120.72217 31020 ft 411 kts
2026-05-05 14:15 37.47027 120.73281 31012 ft 411 kts
2026-05-05 14:16 37.52679 120.74343 31015 ft 411 kts
2026-05-05 14:16 37.58334 120.75423 31008 ft 411 kts
2026-05-05 14:17 37.64009 120.76272 30994 ft 410 kts
2026-05-05 14:17 37.69665 120.76866 30985 ft 410 kts
2026-05-05 14:18 37.75400 120.77461 30998 ft 411 kts
2026-05-05 14:18 37.81062 120.78119 30979 ft 412 kts
2026-05-05 14:19 37.86765 120.78826 30971 ft 412 kts
2026-05-05 14:19 37.92472 120.79525 30964 ft 412 kts
2026-05-05 14:20 37.98186 120.80267 30962 ft 414 kts
2026-05-05 14:20 38.03639 120.82750 30960 ft 424 kts 26°
2026-05-05 14:21 38.08713 120.86578 30958 ft 424 kts 26°
2026-05-05 14:21 38.13799 120.90402 30959 ft 425 kts 26°
2026-05-05 14:22 38.18899 120.94231 30955 ft 426 kts 26°
2026-05-05 14:22 38.23727 120.98627 30967 ft 434 kts 41°
2026-05-05 14:23 38.27169 121.05014 30974 ft 446 kts 61°
2026-05-05 14:23 38.29668 121.12245 30974 ft 446 kts 61°
2026-05-05 14:24 38.32179 121.19474 30972 ft 446 kts 61°
2026-05-05 14:24 38.34694 121.26706 30981 ft 446 kts 61°
2026-05-05 14:25 38.37209 121.33935 30992 ft 446 kts 61°
2026-05-05 14:25 38.39705 121.41181 30986 ft 446 kts 62°
2026-05-05 14:26 38.42230 121.48405 30985 ft 445 kts 60°
2026-05-05 14:26 38.45015 121.55433 30988 ft 444 kts 57°
2026-05-05 14:27 38.47906 121.62386 30985 ft 444 kts 57°
2026-05-05 14:27 38.50753 121.69376 30988 ft 444 kts 58°
2026-05-05 14:28 38.53546 121.76413 30993 ft 444 kts 58°
2026-05-05 14:28 38.56327 121.83461 30994 ft 444 kts 59°
2026-05-05 14:29 38.59115 121.90516 30991 ft 445 kts 59°
2026-05-05 14:29 38.61913 121.97574 30997 ft 445 kts 59°
2026-05-05 14:30 38.64706 122.04646 30994 ft 446 kts 59°
2026-05-05 14:30 38.67548 122.11689 30997 ft 443 kts 54°
2026-05-05 14:31 38.71511 122.17562 30995 ft 433 kts 35°
2026-05-05 14:31 38.76505 122.21757 30995 ft 429 kts 27°
2026-05-05 14:32 38.81555 122.25741 30991 ft 429 kts 27°
2026-05-05 14:32 38.86635 122.29772 31007 ft 430 kts 28°
2026-05-05 14:33 38.91720 122.33804 31004 ft 430 kts 27°
2026-05-05 14:33 38.96809 122.37838 30996 ft 430 kts 27°
2026-05-05 14:34 39.01910 122.41887 30995 ft 431 kts 27°
2026-05-05 14:34 39.07021 122.45955 31004 ft 432 kts 28°
2026-05-05 14:35 39.12135 122.50030 30971 ft 433 kts 28°
2026-05-05 14:35 39.14696 122.52071 30737 ft 433 kts 28°
2026-05-05 14:35 39.17264 122.54123 30488 ft 435 kts 28°
2026-05-05 14:36 39.19835 122.56179 30255 ft 436 kts 28°
2026-05-05 14:36 39.22416 122.58247 30018 ft 438 kts 28°
2026-05-05 14:36 39.25008 122.60326 29742 ft 439 kts 28°
2026-05-05 14:36 39.27611 122.62396 29455 ft 440 kts 27°
2026-05-05 14:37 39.30265 122.64392 29188 ft 442 kts 26°
2026-05-05 14:37 39.32960 122.66315 28913 ft 443 kts 25°
2026-05-05 14:37 39.35678 122.68201 28653 ft 444 kts 25°
2026-05-05 14:37 39.38408 122.70085 28383 ft 445 kts 25°
2026-05-05 14:38 39.41139 122.71987 28119 ft 447 kts 25°
2026-05-05 14:38 39.43871 122.73915 27857 ft 448 kts 25°
2026-05-05 14:38 39.46601 122.75862 27595 ft 449 kts 26°
2026-05-05 14:38 39.49334 122.77825 27344 ft 450 kts 26°
2026-05-05 14:39 39.52071 122.79795 27091 ft 451 kts 26°
2026-05-05 14:39 39.54816 122.81770 26835 ft 452 kts 26°
2026-05-05 14:39 39.57566 122.83750 26587 ft 453 kts 26°
2026-05-05 14:39 39.60324 122.85734 26336 ft 454 kts 26°
2026-05-05 14:40 39.63087 122.87727 26082 ft 455 kts 26°
2026-05-05 14:40 39.65855 122.89730 25850 ft 456 kts 26°
2026-05-05 14:40 39.68636 122.91743 25613 ft 458 kts 26°
2026-05-05 14:40 39.71423 122.93757 25364 ft 459 kts 26°
2026-05-05 14:41 39.74223 122.95775 25122 ft 460 kts 26°
2026-05-05 14:41 39.77025 122.97797 24888 ft 461 kts 26°
2026-05-05 14:41 39.79833 122.99826 24664 ft 462 kts 26°
2026-05-05 14:41 39.82648 123.01866 24510 ft 463 kts 26°
2026-05-05 14:42 39.85466 123.03911 24556 ft 464 kts 26°
2026-05-05 14:42 39.88251 123.05933 24559 ft 465 kts 26°
2026-05-05 14:42 39.91077 123.07981 24558 ft 465 kts 26°
2026-05-05 14:42 39.93905 123.10026 24559 ft 465 kts 26°
2026-05-05 14:43 39.96734 123.12069 24563 ft 465 kts 26°
2026-05-05 14:43 39.99564 123.14116 24561 ft 466 kts 26°
2026-05-05 14:43 40.02398 123.16170 24561 ft 466 kts 26°
2026-05-05 14:43 40.05233 123.18229 24562 ft 466 kts 26°
2026-05-05 14:44 40.08067 123.20280 24567 ft 466 kts 26°
2026-05-05 14:44 40.10908 123.22326 24558 ft 466 kts 26°
2026-05-05 14:44 40.13747 123.24366 24563 ft 466 kts 25°
2026-05-05 14:44 40.16590 123.26405 24564 ft 466 kts 25°
2026-05-05 14:45 40.19434 123.28449 24566 ft 466 kts 26°
2026-05-05 14:45 40.22272 123.30495 24563 ft 466 kts 26°
2026-05-05 14:45 40.25110 123.32550 24564 ft 466 kts 26°
2026-05-05 14:45 40.27948 123.34608 24568 ft 466 kts 26°
2026-05-05 14:46 40.30788 123.36666 24571 ft 466 kts 26°
2026-05-05 14:46 40.33627 123.38726 24572 ft 466 kts 26°
2026-05-05 14:46 40.36463 123.40785 24564 ft 466 kts 26°
2026-05-05 14:46 40.39302 123.42846 24567 ft 466 kts 26°
2026-05-05 14:47 40.42140 123.44909 24572 ft 466 kts 26°
2026-05-05 14:47 40.44981 123.46978 24569 ft 467 kts 26°
2026-05-05 14:47 40.47821 123.49045 24577 ft 467 kts 26°
2026-05-05 14:47 40.50660 123.51112 24568 ft 466 kts 25°
2026-05-05 14:48 40.53497 123.53180 24574 ft 466 kts 26°
2026-05-05 14:48 40.56327 123.55250 24575 ft 466 kts 26°
2026-05-05 14:48 40.59162 123.57328 24576 ft 466 kts 26°
2026-05-05 14:48 40.61996 123.59409 24563 ft 467 kts 26°
2026-05-05 14:49 40.64832 123.61491 24566 ft 467 kts 26°
2026-05-05 14:49 40.67674 123.63575 24566 ft 467 kts 26°
2026-05-05 14:49 40.70511 123.65656 24569 ft 467 kts 26°
2026-05-05 14:49 40.73353 123.67737 24583 ft 467 kts 26°
2026-05-05 14:50 40.76199 123.69825 24564 ft 468 kts 26°
2026-05-05 14:50 40.79047 123.71918 24567 ft 469 kts 26°
2026-05-05 14:50 40.81894 123.74015 24567 ft 469 kts 26°
2026-05-05 14:50 40.84741 123.76106 24575 ft 469 kts 25°
2026-05-05 14:51 40.87603 123.78173 24556 ft 468 kts 25°
2026-05-05 14:51 40.90470 123.80213 24550 ft 469 kts 25°
2026-05-05 14:51 40.93349 123.82250 24551 ft 469 kts 25°
2026-05-05 14:51 40.96224 123.84287 24556 ft 469 kts 25°
2026-05-05 14:52 40.99100 123.86335 24555 ft 469 kts 25°
2026-05-05 14:52 41.00998 123.87692 24552 ft 469 kts 25°
2026-05-05 14:52 41.03868 123.89749 24554 ft 469 kts 25°
2026-05-05 14:52 41.06740 123.91812 24554 ft 470 kts 25°
2026-05-05 14:53 41.09616 123.93879 24550 ft 470 kts 25°
2026-05-05 14:53 41.12488 123.95945 24533 ft 470 kts 24°
2026-05-05 14:53 41.15358 123.98014 24532 ft 469 kts 24°
2026-05-05 14:53 41.18227 124.00084 24532 ft 469 kts 25°
2026-05-05 14:54 41.21092 124.02153 24537 ft 469 kts 25°
2026-05-05 14:54 41.23958 124.04223 24527 ft 469 kts 25°
2026-05-05 14:54 41.26824 124.06295 24529 ft 469 kts 25°
2026-05-05 14:54 41.29691 124.08366 24517 ft 469 kts 25°
2026-05-05 14:55 41.32554 124.10436 24523 ft 469 kts 25°
2026-05-05 14:55 41.35419 124.12513 24518 ft 469 kts 25°
2026-05-05 14:55 41.38282 124.14591 24501 ft 469 kts 25°
2026-05-05 14:55 41.41144 124.16669 24494 ft 469 kts 25°
2026-05-05 14:56 41.44002 124.18774 24488 ft 469 kts 25°
2026-05-05 14:56 41.46848 124.20906 24491 ft 470 kts 26°
2026-05-05 14:56 41.49691 124.23060 24490 ft 470 kts 26°
2026-05-05 14:56 41.52525 124.25220 24490 ft 470 kts 26°
2026-05-05 14:57 41.55369 124.27383 24485 ft 470 kts 26°
2026-05-05 14:57 41.58214 124.29537 24473 ft 471 kts 25°
2026-05-05 14:57 41.61061 124.31685 24480 ft 471 kts 26°
2026-05-05 14:57 41.63913 124.33837 24469 ft 471 kts 25°
2026-05-05 14:58 41.66763 124.35991 24465 ft 470 kts 26°
2026-05-05 14:58 41.69613 124.38149 24455 ft 470 kts 26°
2026-05-05 14:58 41.72456 124.40301 24457 ft 470 kts 26°
2026-05-05 14:58 41.75303 124.42462 24475 ft 470 kts 26°
2026-05-05 14:59 41.78107 124.44597 24460 ft 469 kts 26°
2026-05-05 14:59 41.80978 124.46786 24455 ft 468 kts 26°
2026-05-05 14:59 41.83806 124.48944 24457 ft 468 kts 26°
2026-05-05 14:59 41.86599 124.51072 24465 ft 468 kts 26°
2026-05-05 15:00 41.89470 124.53259 24434 ft 468 kts 26°
2026-05-05 15:00 41.91343 124.54688 24437 ft 468 kts 26°
2026-05-05 15:00 41.95093 124.57553 24440 ft 468 kts 26°
2026-05-05 15:00 41.97921 124.59721 24441 ft 468 kts 26°
2026-05-05 15:01 42.00771 124.61829 24435 ft 467 kts 24°
2026-05-05 15:01 42.03655 124.63839 24437 ft 467 kts 23°
2026-05-05 15:01 42.06559 124.65788 24426 ft 467 kts 22°
2026-05-05 15:01 42.09476 124.67718 24425 ft 467 kts 22°
2026-05-05 15:02 42.12388 124.69650 24424 ft 467 kts 22°
2026-05-05 15:02 42.15295 124.71607 24410 ft 467 kts 23°
2026-05-05 15:02 42.18194 124.73590 24411 ft 467 kts 23°
2026-05-05 15:02 42.21086 124.75590 24409 ft 468 kts 23°
2026-05-05 15:03 42.23980 124.77598 24411 ft 468 kts 23°
2026-05-05 15:03 42.26878 124.79608 24408 ft 468 kts 23°
2026-05-05 15:03 42.29782 124.81619 24408 ft 468 kts 23°
2026-05-05 15:03 42.32682 124.83623 24403 ft 469 kts 23°
2026-05-05 15:04 42.35584 124.85629 24402 ft 469 kts 23°
2026-05-05 15:04 42.38486 124.87636 24399 ft 469 kts 23°
2026-05-05 15:04 42.41394 124.89649 24382 ft 470 kts 23°
2026-05-05 15:04 42.44300 124.91665 24384 ft 470 kts 23°
2026-05-05 15:05 42.50120 124.95712 24384 ft 470 kts 23°
2026-05-05 15:05 42.53026 124.97740 24384 ft 470 kts 23°
2026-05-05 15:05 42.55935 124.99772 24381 ft 470 kts 23°
2026-05-05 15:06 42.58842 125.01802 24382 ft 470 kts 23°
2026-05-05 15:06 42.61746 125.03828 24369 ft 470 kts 23°
2026-05-05 15:06 42.64657 125.05857 24366 ft 470 kts 23°
2026-05-05 15:06 42.67564 125.07888 24373 ft 470 kts 23°
2026-05-05 15:07 42.70470 125.09923 24383 ft 470 kts 23°
2026-05-05 15:07 42.73376 125.11960 24368 ft 470 kts 23°
2026-05-05 15:07 42.76281 125.13998 24370 ft 470 kts 23°
2026-05-05 15:07 42.79177 125.16081 24367 ft 472 kts 26°
2026-05-05 15:08 42.81858 125.18699 24368 ft 478 kts 37°
2026-05-05 15:08 42.84170 125.21984 24366 ft 484 kts 49°
2026-05-05 15:08 42.86094 125.25760 24382 ft 486 kts 53°
2026-05-05 15:08 42.87961 125.29595 24335 ft 483 kts 53°
2026-05-05 15:09 42.89886 125.33279 23904 ft 470 kts 46°
2026-05-05 15:09 42.92136 125.36403 23470 ft 455 kts 36°
2026-05-05 15:09 42.94650 125.38904 22980 ft 442 kts 26°
2026-05-05 15:09 42.97323 125.40866 22468 ft 432 kts 22°
2026-05-05 15:10 42.99976 125.42725 21968 ft 426 kts 22°
2026-05-05 15:10 43.02597 125.44566 21474 ft 421 kts 22°
2026-05-05 15:10 43.05191 125.46388 20984 ft 417 kts 22°
2026-05-05 15:10 43.07761 125.48193 20503 ft 413 kts 22°
2026-05-05 15:11 43.10308 125.49982 20035 ft 410 kts 22°
2026-05-05 15:11 43.12836 125.51756 19571 ft 406 kts 22°
2026-05-05 15:11 43.15337 125.53512 19133 ft 402 kts 21°
2026-05-05 15:11 43.17818 125.55258 18683 ft 399 kts 21°
2026-05-05 15:12 43.20275 125.56990 18246 ft 395 kts 21°
2026-05-05 15:12 43.22712 125.58713 17767 ft 393 kts 21°
2026-05-05 15:12 43.25137 125.60428 17262 ft 391 kts 21°
2026-05-05 15:12 43.27547 125.62133 16761 ft 389 kts 22°
2026-05-05 15:13 43.29948 125.63832 16286 ft 387 kts 22°
2026-05-05 15:13 43.32336 125.65524 15794 ft 386 kts 22°
2026-05-05 15:13 43.34719 125.67215 15320 ft 384 kts 22°
2026-05-05 15:13 43.37092 125.68883 14853 ft 382 kts 21°
2026-05-05 15:14 43.39564 125.70028 14394 ft 369 kts
2026-05-05 15:14 43.42076 125.70135 13939 ft 356 kts 345°
2026-05-05 15:14 43.44414 125.69264 13490 ft 343 kts 328°
2026-05-05 15:14 43.46397 125.67587 12979 ft 329 kts 312°
2026-05-05 15:15 43.47985 125.65397 12497 ft 321 kts 306°
2026-05-05 15:15 43.49516 125.63166 12012 ft 319 kts 306°
2026-05-05 15:15 43.51041 125.60957 11530 ft 317 kts 306°
2026-05-05 15:15 43.52559 125.58764 11072 ft 315 kts 306°
2026-05-05 15:16 43.54052 125.56607 10597 ft 304 kts 306°
2026-05-05 15:16 43.55483 125.54544 10144 ft 291 kts 306°
2026-05-05 15:16 43.56850 125.52569 9839 ft 275 kts 306°
2026-05-05 15:16 43.58146 125.50700 9684 ft 267 kts 305°
2026-05-05 15:17 43.59413 125.48855 9435 ft 265 kts 305°
2026-05-05 15:17 43.60680 125.47002 9173 ft 263 kts 306°
2026-05-05 15:17 43.62044 125.45305 8918 ft 265 kts 310°
2026-05-05 15:17 43.63434 125.43645 8657 ft 263 kts 310°
2026-05-05 15:18 43.64815 125.41991 8398 ft 262 kts 310°
2026-05-05 15:18 43.66188 125.40342 8137 ft 261 kts 310°
2026-05-05 15:18 43.67558 125.38702 7907 ft 260 kts 310°
2026-05-05 15:18 43.68924 125.37066 7664 ft 260 kts 310°
2026-05-05 15:19 43.70289 125.35430 7409 ft 259 kts 310°
2026-05-05 15:19 43.71649 125.33801 7175 ft 259 kts 310°
2026-05-05 15:19 43.73000 125.32186 6939 ft 254 kts 311°
2026-05-05 15:19 43.74503 125.30944 6744 ft 265 kts 337°
2026-05-05 15:20 43.76385 125.31043 6579 ft 283 kts 13°
2026-05-05 15:20 43.78000 125.32631 6410 ft 292 kts 50°
2026-05-05 15:20 43.78909 125.35116 6252 ft 288 kts 66°
2026-05-05 15:20 43.79959 125.37384 6101 ft 274 kts 40°
2026-05-05 15:21 43.81317 125.39237 5838 ft 271 kts 42°
2026-05-05 15:21 43.82571 125.41144 5475 ft 270 kts 46°
2026-05-05 15:21 43.83780 125.43090 5127 ft 263 kts 47°
2026-05-05 15:21 43.84957 125.44983 4779 ft 256 kts 46°
2026-05-05 15:22 43.86109 125.46824 4453 ft 249 kts 47°
2026-05-05 15:22 43.87250 125.48646 4112 ft 252 kts 47°
2026-05-05 15:22 43.88400 125.50485 3777 ft 253 kts 49°
2026-05-05 15:22 43.89546 125.52320 3428 ft 249 kts 49°
2026-05-05 15:23 43.90646 125.54082 3106 ft 234 kts 49°
2026-05-05 15:23 43.91692 125.55759 2818 ft 225 kts 50°
2026-05-05 15:23 43.92690 125.57359 2532 ft 213 kts 50°
2026-05-05 15:23 43.93627 125.58862 2256 ft 198 kts 50°
2026-05-05 15:24 43.94472 125.60217 1995 ft 175 kts 51°
2026-05-05 15:24 43.95231 125.61437 1767 ft 162 kts 51°
2026-05-05 15:24 43.95951 125.62594 1555 ft 156 kts 51°
2026-05-05 15:24 43.96639 125.63705 1352 ft 149 kts 50°
2026-05-05 15:25 43.97307 125.64776 1160 ft 145 kts 50°
2026-05-05 15:25 43.97956 125.65824 975 ft 142 kts 49°
2026-05-05 15:25 43.98597 125.66847 799 ft 139 kts 48°
2026-05-05 15:25 43.99201 125.67823 718 ft 121 kts 49°
2026-05-05 15:26 43.99641 125.68526 717 ft 72 kts 49°
2026-05-05 15:26 43.99883 125.68917 720 ft 38 kts 49°
2026-05-05 15:26 43.99957 125.69151 716 ft 20 kts 79°
2026-05-05 15:26 43.99972 125.69263 715 ft 12 kts 79°
2026-05-05 15:27 43.99981 125.69369 715 ft 8 kts 95°
2026-05-05 15:27 43.99953 125.69425 717 ft 0 kts 139°
2026-05-05 15:27 43.99952 125.69426 717 ft 1 kts 139°
2026-05-05 15:28 43.99943 125.69436 717 ft 3 kts 139°
2026-05-05 15:28 43.99923 125.69462 715 ft 5 kts 139°
2026-05-05 15:28 43.99890 125.69500 717 ft 7 kts 141°
2026-05-05 15:28 43.99855 125.69516 716 ft 6 kts 177°
2026-05-05 15:29 43.99811 125.69542 716 ft 8 kts 141°
2026-05-05 15:29 43.99792 125.69563 714 ft 1 kts 139°
2026-05-05 15:29 43.99786 125.69570 715 ft 0 kts 138°